Location: Condor
(52.3263°N, 114.5541°W)
Time: 12:40:56
(UTC+00:00)

SO-50 - Visible Passes

Search period start: 05 December 2023 00:00
Search period end: 15 December 2023 00:00
Orbit: 601 x 670 km, 64.6° (Epoch: 04 December)

Date Brightness Start Highest point End Pass type
(mag) Time Alt. Az. Time Alt. Az. Time Alt. Az.
05 Dec ? 11:26:32 18° NE 11:26:32 18° NE 11:27:44 10° NE visible
05 Dec ? 13:04:01 35° NNW 13:04:01 35° NNW 13:07:59 10° NE visible
05 Dec ? 14:41:52 10° NW 14:45:11 19° N 14:48:28 10° NE visible
06 Dec ? 11:48:47 21° NE 11:48:47 21° NE 11:50:21 10° NE visible
06 Dec ? 13:26:16 25° NNW 13:26:38 26° NNW 13:30:31 10° NNE visible
07 Dec ? 12:10:58 23° NNE 12:10:58 23° NNE 12:12:53 10° NE visible
07 Dec ? 13:48:26 18° NW 13:49:43 20° NNW 13:53:11 10° NE visible
08 Dec ? 12:33:05 23° N 12:33:05 23° N 12:35:23 10° NE visible
08 Dec ? 14:10:33 13° NW 14:12:51 18° N 14:16:03 10° NE visible
09 Dec ? 11:17:40 11° NE 11:17:40 11° NE 11:17:46 10° NE visible
09 Dec ? 12:55:08 22° N 12:55:08 22° N 12:57:57 10° NE visible
09 Dec ? 14:32:47 10° NW 14:36:01 18° N 14:39:12 10° NE visible
10 Dec ? 11:39:42 13° NNE 11:39:42 13° NNE 11:40:15 10° NE visible
10 Dec ? 13:17:10 19° NNW 13:17:20 19° N 13:20:40 10° NE visible
10 Dec ? 14:55:39 10° NW 14:59:09 21° NNE 15:02:35 10° ENE visible
11 Dec ? 12:01:42 15° NNE 12:01:42 15° NNE 12:02:45 10° NE visible
11 Dec ? 13:39:10 16° NNW 13:40:29 18° N 13:43:38 10° NE visible
12 Dec ? 12:23:41 17° NNE 12:23:41 17° NNE 12:25:20 10° NE visible
12 Dec ? 14:01:09 13° NNW 14:03:37 19° N 14:06:52 10° NE visible
13 Dec ? 12:45:39 18° N 12:45:39 18° N 12:48:08 10° NE visible
13 Dec ? 14:23:07 10° NNW 14:26:42 22° NNE 14:30:16 10° ENE visible
14 Dec ? 13:07:36 18° N 13:08:02 18° N 13:11:12 10° NE visible
14 Dec ? 14:45:37 10° NW 14:49:40 29° NNE 14:53:38 10° E visible
